When you browse on this site, cookies collect data to enhance your experience and personalize the content and advertising you see.
Visit our Privacy Policy to learn more. By continuing to use the site, you agree to this use of cookies and data.
  • In Portugal
  • List of Countries
  • For 7 days
  • Water Temperature
  • Weather Map
  • Weather Widgets
  • user-avatar
    Login

    Hourly Weather Sergincy

    Today, 21 August, Wednesday

    Time Temperature Precipitation Wind Pressure Humidity
    00:00 +16°C° 0 mm 2 mps 748 mmHg 96%
    01:00 +16°C° 0 mm 2 mps 748 mmHg 95%
    02:00 +15°C° 0 mm 2 mps 748 mmHg 96%
    03:00 +15°C° 0 mm 2 mps 749 mmHg 96%
    04:00 +15°C° 0 mm 2 mps 749 mmHg 99%
    05:00 +15°C° 0 mm 2 mps 749 mmHg 97%
    06:00 +15°C° 0 mm 2 mps 749 mmHg 94%
    07:00 +15°C° 0 mm 2 mps 750 mmHg 92%
    08:00 +17°C° 0 mm 2 mps 750 mmHg 86%
    09:00 +18°C° 0 mm 2 mps 750 mmHg 79%
    10:00 +19°C° 0 mm 2 mps 751 mmHg 73%
    11:00 +20°C° 0 mm 2 mps 751 mmHg 68%
    12:00 +21°C° 0 mm 2 mps 751 mmHg 63%
    13:00 +23°C° 0 mm 2 mps 751 mmHg 58%
    14:00 +23°C° 0 mm 1 mps 751 mmHg 59%
    15:00 +23°C° 0 mm 1 mps 751 mmHg 59%
    16:00 +23°C° 0 mm 1 mps 751 mmHg 60%
    17:00 +22°C° 0 mm 1 mps 751 mmHg 66%
    18:00 +20°C° 0 mm 1 mps 751 mmHg 72%
    19:00 +19°C° 0 mm 1 mps 751 mmHg 78%
    20:00 +18°C° 0 mm 1 mps 751 mmHg 79%
    21:00 +16°C° 0 mm 1 mps 751 mmHg 80%
    22:00 +15°C° 0 mm 1 mps 751 mmHg 82%
    23:00 +14°C° 0 mm 1 mps 751 mmHg 83%

    Tomorrow, 22 August, Thursday

    Time Temperature Precipitation Wind Pressure Humidity
    00:00 +14°C° 0 mm 1 mps 751 mmHg 85%
    01:00 +12°C° 0 mm 0 mps 751 mmHg 86%
    02:00 +13°C° 0 mm 1 mps 751 mmHg 87%
    03:00 +13°C° 0 mm 1 mps 751 mmHg 88%
    04:00 +13°C° 0 mm 1 mps 751 mmHg 88%
    05:00 +14°C° 0 mm 1 mps 751 mmHg 86%
    06:00 +15°C° 0 mm 1 mps 751 mmHg 84%
    07:00 +15°C° 0 mm 1 mps 751 mmHg 82%
    08:00 +18°C° 0 mm 1 mps 751 mmHg 77%
    09:00 +20°C° 0 mm 1 mps 751 mmHg 73%
    10:00 +21°C° 0 mm 2 mps 751 mmHg 69%
    11:00 +23°C° 0 mm 2 mps 750 mmHg 68%
    12:00 +23°C° 0 mm 2 mps 750 mmHg 68%
    13:00 +24°C° 0 mm 2 mps 750 mmHg 68%
    14:00 +24°C° 0.2 mm 2 mps 750 mmHg 70%
    15:00 +24°C° 0.2 mm 2 mps 750 mmHg 73%
    16:00 +24°C° 0.2 mm 2 mps 749 mmHg 75%
    17:00 +23°C° 0.4 mm 2 mps 749 mmHg 81%
    18:00 +21°C° 0.4 mm 2 mps 749 mmHg 86%
    19:00 +20°C° 0.4 mm 2 mps 748 mmHg 91%
    20:00 +19°C° 0.1 mm 2 mps 748 mmHg 92%
    21:00 +19°C° 0.1 mm 2 mps 748 mmHg 94%
    22:00 +18°C° 0.1 mm 3 mps 748 mmHg 95%
    23:00 +18°C° 0 mm 3 mps 748 mmHg 95%

    Day after tomorrow, 23 August, Friday

    Time Temperature Precipitation Wind Pressure Humidity
    00:00 +18°C° 0 mm 3 mps 748 mmHg 96%
    01:00 +17°C° 0 mm 3 mps 747 mmHg 96%
    02:00 +17°C° 0.1 mm 3 mps 747 mmHg 96%
    03:00 +17°C° 0.1 mm 3 mps 747 mmHg 97%
    04:00 +17°C° 0.1 mm 3 mps 747 mmHg 97%
    05:00 +18°C° 0.1 mm 3 mps 747 mmHg 97%
    06:00 +18°C° 0.1 mm 4 mps 746 mmHg 96%
    07:00 +18°C° 0.1 mm 4 mps 746 mmHg 96%
    08:00 +18°C° 0.4 mm 4 mps 746 mmHg 95%
    09:00 +18°C° 0.4 mm 4 mps 746 mmHg 95%
    10:00 +18°C° 0.4 mm 4 mps 747 mmHg 95%
    11:00 +19°C° 0.1 mm 4 mps 747 mmHg 86%
    12:00 +19°C° 0.1 mm 4 mps 747 mmHg 76%
    13:00 +20°C° 0.1 mm 4 mps 747 mmHg 67%
    14:00 +20°C° 0 mm 4 mps 747 mmHg 64%
    15:00 +21°C° 0 mm 4 mps 747 mmHg 61%
    16:00 +21°C° 0 mm 4 mps 748 mmHg 58%
    17:00 +20°C° 0 mm 4 mps 748 mmHg 64%
    18:00 +18°C° 0 mm 3 mps 748 mmHg 70%
    19:00 +17°C° 0 mm 3 mps 748 mmHg 77%
    20:00 +16°C° 0 mm 3 mps 748 mmHg 80%
    21:00 +15°C° 0 mm 2 mps 748 mmHg 84%
    22:00 +14°C° 0 mm 2 mps 748 mmHg 88%
    23:00 +13°C° 0 mm 2 mps 748 mmHg 90%

    24 August, Saturday

    Time Temperature Precipitation Wind Pressure Humidity
    00:00 +13°C° 0 mm 2 mps 748 mmHg 93%
    01:00 +12°C° 0 mm 2 mps 749 mmHg 95%
    02:00 +10°C° 0 mm 2 mps 749 mmHg 96%
    03:00 +10°C° 0 mm 2 mps 749 mmHg 96%
    04:00 +10°C° 0 mm 2 mps 749 mmHg 97%
    05:00 +10°C° 0 mm 2 mps 749 mmHg 93%
    06:00 +11°C° 0 mm 3 mps 749 mmHg 90%
    07:00 +12°C° 0 mm 3 mps 749 mmHg 86%
    08:00 +13°C° 0 mm 3 mps 749 mmHg 80%
    09:00 +16°C° 0 mm 3 mps 750 mmHg 73%
    10:00 +18°C° 0 mm 3 mps 750 mmHg 66%
    11:00 +18°C° 0.1 mm 3 mps 749 mmHg 63%
    12:00 +19°C° 0.1 mm 3 mps 749 mmHg 61%
    13:00 +20°C° 0.1 mm 3 mps 749 mmHg 58%
    14:00 +20°C° 0.1 mm 4 mps 749 mmHg 56%
    15:00 +20°C° 0.1 mm 4 mps 749 mmHg 55%
    16:00 +21°C° 0.1 mm 4 mps 749 mmHg 53%
    17:00 +19°C° 0 mm 3 mps 749 mmHg 60%
    18:00 +18°C° 0 mm 2 mps 749 mmHg 66%
    19:00 +16°C° 0 mm 2 mps 749 mmHg 73%
    20:00 +15°C° 0 mm 2 mps 749 mmHg 77%
    21:00 +14°C° 0 mm 2 mps 749 mmHg 81%
    22:00 +13°C° 0 mm 2 mps 749 mmHg 86%
    23:00 +12°C° 0 mm 2 mps 749 mmHg 89%

    25 August, Sunday

    Time Temperature Precipitation Wind Pressure Humidity
    00:00 +12°C° 0 mm 2 mps 749 mmHg 92%
    01:00 +12°C° 0 mm 2 mps 749 mmHg 95%
    02:00 +12°C° 0 mm 2 mps 749 mmHg 95%
    03:00 +12°C° 0 mm 2 mps 748 mmHg 96%
    04:00 +12°C° 0 mm 2 mps 748 mmHg 96%
    05:00 +12°C° 0 mm 3 mps 748 mmHg 92%
    06:00 +12°C° 0 mm 3 mps 747 mmHg 88%
    07:00 +13°C° 0 mm 3 mps 747 mmHg 84%
    08:00 +15°C° 0 mm 4 mps 747 mmHg 79%
    09:00 +17°C° 0 mm 4 mps 746 mmHg 74%
    10:00 +17°C° 0 mm 5 mps 746 mmHg 69%
    11:00 +19°C° 0 mm 5 mps 745 mmHg 65%
    12:00 +20°C° 0 mm 6 mps 745 mmHg 62%
    13:00 +21°C° 0 mm 6 mps 744 mmHg 58%
    14:00 +20°C° 0.2 mm 6 mps 744 mmHg 63%
    15:00 +20°C° 0.2 mm 5 mps 743 mmHg 69%
    16:00 +19°C° 0.2 mm 5 mps 743 mmHg 75%
    17:00 +18°C° 0.8 mm 4 mps 743 mmHg 82%
    18:00 +16°C° 0.8 mm 3 mps 742 mmHg 89%
    19:00 +14°C° 0.8 mm 2 mps 742 mmHg 96%
    20:00 +14°C° 0 mm 2 mps 742 mmHg 96%
    21:00 +14°C° 0 mm 2 mps 742 mmHg 96%
    22:00 +12°C° 0 mm 3 mps 742 mmHg 97%
    23:00 +13°C° 0 mm 2 mps 742 mmHg 97%

    26 August, Monday

    Time Temperature Precipitation Wind Pressure Humidity
    00:00 +13°C° 0 mm 2 mps 742 mmHg 97%
    01:00 +12°C° 0 mm 2 mps 742 mmHg 97%
    02:00 +12°C° 0 mm 2 mps 742 mmHg 97%
    03:00 +10°C° 0 mm 2 mps 742 mmHg 97%
    04:00 +9°C° 0 mm 3 mps 741 mmHg 97%
    05:00 +9°C° 0 mm 3 mps 742 mmHg 96%
    06:00 +10°C° 0 mm 3 mps 742 mmHg 96%
    07:00 +10°C° 0 mm 3 mps 742 mmHg 95%
    08:00 +10°C° 0.1 mm 3 mps 742 mmHg 93%
    09:00 +10°C° 0.1 mm 4 mps 742 mmHg 90%
    10:00 +11°C° 0.1 mm 4 mps 743 mmHg 88%
    11:00 +11°C° 0.1 mm 4 mps 743 mmHg 84%
    12:00 +10°C° 0.1 mm 5 mps 743 mmHg 79%
    13:00 +10°C° 0.1 mm 5 mps 743 mmHg 75%
    14:00 +10°C° 0 mm 5 mps 744 mmHg 73%
    15:00 +9°C° 0 mm 5 mps 744 mmHg 71%
    16:00 +10°C° 0 mm 4 mps 744 mmHg 69%
    17:00 +8°C° 0 mm 4 mps 745 mmHg 69%
    18:00 +8°C° 0 mm 4 mps 745 mmHg 69%
    19:00 +7°C° 0 mm 4 mps 745 mmHg 70%
    20:00 +7°C° 0 mm 4 mps 745 mmHg 72%
    21:00 +7°C° 0 mm 4 mps 745 mmHg 74%
    22:00 +7°C° 0 mm 5 mps 745 mmHg 76%
    23:00 +7°C° 0 mm 5 mps 745 mmHg 76%
    Show more